Regional Weather Roundup
Issued by NWS

Home | Current Version | Previous Version | Text Only | Print | Product List | Glossary On
Versions: 1 2 3 4 5 6 7 8 9 10 11 12 13 14 15 16 17 18 19 20 21 22 23 24 25 26 27 28 29 30 31 32 33 34 35 36 37 38 39 40 41 42 43 44 45 46 47 48 49 50
000
ASUS43 KLSX 230059
RWRMO

WEATHER SUMMARY FOR MISSOURI
NATIONAL WEATHER SERVICE SPRINGFIELD MO
800 PM CDT MON SEP 22 2014

NOTE: "FAIR" INDICATES FEW OR NO CLOUDS BELOW 12,000 FEET WITH NO
       SIGNIFICANT WEATHER AND/OR OBSTRUCTIONS TO VISIBILITY.
       CURRENT SKY AND/OR WEATHER CONDITIONS ARE NOT AVAILABLE FOR
       CHILLICOTHE AND FARMINGTON.

MOZ001>031-035>038-043-044-053-054-230200-
...NORTHERN AND WESTERN MISSOURI...

CITY           SKY/WX    TMP DP  RH WIND       PRES   REMARKS
KANSAS CTY INT MOCLDY    67  51  56 E9        30.22S
KANSAS C DTWN  MOCLDY    69  52  54 SE7       30.21S
LEE`S SUMMIT   PTCLDY    67  51  56 SE6       30.23S
ST JOSEPH      PTCLDY    64  53  67 SE6       30.21S
KIRKSVILLE     CLEAR     56  52  86 CALM      30.26R

$$
MOZ066>068-077>081-088>096-101>105-230200-
...SOUTHWEST MISSOURI...

CITY           SKY/WX    TMP DP  RH WIND       PRES   REMARKS
SPRINGFIELD    CLEAR     66  48  52 E5        30.23R
JOPLIN         MOCLDY    62  55  77 E3        30.22S

$$
MOZ032>034-039>042-045>050-055>058-069>072-230200-
...CENTRAL MISSOURI...

CITY           SKY/WX    TMP DP  RH WIND       PRES   REMARKS
COLUMBIA       PTCLDY    62  50  64 NE5       30.25R
JEFFERSON CITY CLEAR     62  50  64 CALM      30.23R
ROLLA          CLEAR     57  47  69 CALM      30.23R
SEDALIA        CLEAR     65  52  62 CALM      30.24S
WHITEMAN AFB   CLEAR     62  52  67 CALM      30.23R
OSAGE BEACH    CLEAR     57  50  77 NE3       30.23S

$$
MOZ051-052-059>065-230200-
...EAST CENTRAL MISSOURI...

CITY           SKY/WX    TMP DP  RH WIND       PRES   REMARKS
ST LOUIS INTL  PTCLDY    65  49  56 CALM      30.24R
SPIRIT OF STL  CLEAR     57  52  83 CALM      30.23R
ST CHARLES     CLEAR     59  54  83 N5        30.23R

$$
MOZ072>076-082>087-097>100-106>115-230200-
...SOUTH CENTRAL AND SOUTHEAST MISSOURI...

CITY           SKY/WX    TMP DP  RH WIND       PRES   REMARKS
CAPE GIRARDEAU CLEAR     60  50  69 CALM      30.22R
FARMINGTON     CLEAR     61  46  59 CALM      30.26R
POPLAR BLUFF   CLEAR     58  52  80 CALM      30.21R
WEST PLAINS    CLEAR     59  51  75 CALM      30.24R

$$



USA.gov is the U.S. government's official web portal to all federal, state and local government web resources and services.